SKW5626 KPSP-KELP

Flight info

Callsign SKW5626
Flight time 1h 16m
Altitude 35000
Route HWRRD1 BLH BXK PXR TEEES MOLLY5
Aircraft E170/M-SDE3GILORVW/S

Departure

Time 2026-04-25 03:05
Airport Palm Springs International Airport (KPSP)

Arrival

Time 2026-04-25 04:21
Airport El Paso International Airport (KELP)
Time Latitude Longitude Altitude Speed Heading
2026-04-25 02:39 33.82041 -116.50670 425 ft 0 kts 360°
2026-04-25 02:57 33.82038 -116.50670 425 ft 3 kts 360°
2026-04-25 02:57 33.82013 -116.50670 420 ft 2 kts 360°
2026-04-25 02:58 33.81990 -116.50675 425 ft 4 kts 35°
2026-04-25 02:58 33.81987 -116.50697 425 ft 4 kts 133°
2026-04-25 02:58 33.82001 -116.50714 414 ft 0 kts 135°
2026-04-25 03:01 33.81995 -116.50707 425 ft 2 kts 135°
2026-04-25 03:02 33.81977 -116.50684 416 ft 5 kts 133°
2026-04-25 03:02 33.81968 -116.50647 425 ft 5 kts 94°
2026-04-25 03:02 33.81966 -116.50592 425 ft 8 kts 89°
2026-04-25 03:02 33.81966 -116.50512 425 ft 12 kts 89°
2026-04-25 03:03 33.81968 -116.50385 416 ft 20 kts 89°
2026-04-25 03:03 33.81968 -116.50197 411 ft 24 kts 93°
2026-04-25 03:03 33.81913 -116.50043 411 ft 19 kts 145°
2026-04-25 03:03 33.81852 -116.49905 410 ft 15 kts 86°
2026-04-25 03:04 33.81853 -116.49894 410 ft 0 kts 86°
2026-04-25 03:04 33.81853 -116.49884 410 ft 4 kts 86°
2026-04-25 03:04 33.81857 -116.49843 410 ft 6 kts 70°
2026-04-25 03:05 33.81962 -116.49878 404 ft 33 kts 323°
2026-04-25 03:05 33.82383 -116.50264 408 ft 117 kts 321°
2026-04-25 03:05 33.83195 -116.50994 699 ft 164 kts 322°
2026-04-25 03:05 33.84057 -116.52035 1551 ft 181 kts 304°
2026-04-25 03:06 33.84890 -116.53113 2350 ft 182 kts 327°
2026-04-25 03:06 33.86058 -116.53874 3303 ft 201 kts 329°
2026-04-25 03:06 33.87310 -116.54736 4324 ft 213 kts 325°
2026-04-25 03:06 33.88586 -116.55729 5377 ft 224 kts 323°
2026-04-25 03:07 33.89973 -116.56616 6423 ft 235 kts 340°
2026-04-25 03:07 33.91615 -116.56822 7512 ft 242 kts
2026-04-25 03:07 33.93226 -116.56239 8645 ft 244 kts 27°
2026-04-25 03:07 33.94567 -116.55014 9769 ft 241 kts 46°
2026-04-25 03:08 33.95655 -116.53499 10817 ft 241 kts 51°
2026-04-25 03:08 33.96697 -116.51749 11164 ft 271 kts 56°
2026-04-25 03:08 33.97513 -116.49597 11381 ft 305 kts 79°
2026-04-25 03:08 33.97448 -116.46958 11699 ft 330 kts 108°
2026-04-25 03:09 33.96344 -116.44491 12059 ft 349 kts 131°
2026-04-25 03:09 33.94696 -116.42248 12877 ft 353 kts 135°
2026-04-25 03:09 33.93187 -116.39851 13848 ft 363 kts 128°
2026-04-25 03:09 33.91617 -116.37444 14738 ft 366 kts 136°
2026-04-25 03:10 33.89778 -116.35303 15723 ft 369 kts 143°
2026-04-25 03:10 33.87803 -116.33292 16607 ft 374 kts 146°
2026-04-25 03:10 33.85761 -116.31298 17444 ft 379 kts 147°
2026-04-25 03:10 33.83675 -116.29299 18155 ft 387 kts 148°
2026-04-25 03:11 33.81549 -116.27280 18916 ft 392 kts 148°
2026-04-25 03:11 33.79532 -116.25079 19587 ft 408 kts 134°
2026-04-25 03:11 33.78137 -116.22034 20334 ft 422 kts 115°
2026-04-25 03:11 33.77173 -116.18661 21005 ft 430 kts 110°
2026-04-25 03:12 33.76279 -116.15209 21670 ft 435 kts 110°
2026-04-25 03:12 33.75354 -116.11721 22283 ft 440 kts 111°
2026-04-25 03:12 33.74396 -116.08196 22733 ft 450 kts 111°
2026-04-25 03:12 33.73399 -116.04560 22962 ft 464 kts 111°
2026-04-25 03:13 33.72391 -116.00877 23695 ft 458 kts 111°
2026-04-25 03:13 33.71396 -115.97245 24430 ft 460 kts 111°
2026-04-25 03:13 33.70415 -115.93526 24542 ft 476 kts 106°
2026-04-25 03:13 33.69856 -115.89569 24923 ft 484 kts 98°
2026-04-25 03:14 33.69547 -115.85522 25459 ft 487 kts 96°
2026-04-25 03:14 33.69235 -115.81478 26132 ft 485 kts 97°
2026-04-25 03:14 33.68906 -115.77451 26773 ft 484 kts 97°
2026-04-25 03:14 33.68568 -115.73482 27401 ft 483 kts 98°
2026-04-25 03:15 33.68216 -115.69440 27949 ft 483 kts 98°
2026-04-25 03:15 33.67864 -115.65418 28514 ft 482 kts 98°
2026-04-25 03:15 33.67516 -115.61455 29048 ft 482 kts 98°
2026-04-25 03:15 33.67159 -115.57460 29569 ft 481 kts 98°
2026-04-25 03:16 33.66920 -115.54814 29884 ft 481 kts 98°
2026-04-25 03:16 33.66560 -115.50802 30314 ft 482 kts 98°
2026-04-25 03:16 33.66083 -115.45510 30848 ft 485 kts 99°
2026-04-25 03:16 33.65711 -115.41431 31253 ft 487 kts 99°
2026-04-25 03:17 33.65462 -115.38695 31491 ft 488 kts 99°
2026-04-25 03:17 33.65096 -115.34686 31875 ft 489 kts 99°
2026-04-25 03:17 33.64729 -115.30623 32219 ft 491 kts 99°
2026-04-25 03:17 33.64358 -115.26533 32541 ft 493 kts 99°
2026-04-25 03:18 33.63978 -115.22416 32869 ft 495 kts 99°
2026-04-25 03:18 33.63594 -115.18303 33198 ft 496 kts 99°
2026-04-25 03:18 33.63210 -115.14179 33482 ft 498 kts 99°
2026-04-25 03:18 33.62824 -115.10036 33796 ft 499 kts 99°
2026-04-25 03:19 33.62441 -115.05896 34082 ft 500 kts 99°
2026-04-25 03:19 33.62052 -115.01741 34409 ft 501 kts 99°
2026-04-25 03:19 33.61659 -114.97588 34721 ft 502 kts 99°
2026-04-25 03:19 33.61272 -114.93449 34725 ft 510 kts 99°
2026-04-25 03:20 33.60478 -114.85005 34761 ft 504 kts 99°
2026-04-25 03:20 33.59674 -114.76585 34807 ft 512 kts 99°
2026-04-25 03:21 33.59044 -114.68059 34816 ft 514 kts 96°
2026-04-25 03:21 33.58505 -114.59505 34748 ft 515 kts 97°
2026-04-25 03:22 33.57939 -114.50947 34762 ft 515 kts 97°
2026-04-25 03:22 33.57360 -114.42385 34753 ft 516 kts 97°
2026-04-25 03:23 33.56768 -114.33819 34755 ft 515 kts 97°
2026-04-25 03:23 33.56171 -114.25276 34768 ft 515 kts 97°
2026-04-25 03:24 33.55573 -114.16709 34780 ft 516 kts 97°
2026-04-25 03:24 33.54968 -114.08191 34779 ft 515 kts 97°
2026-04-25 03:25 33.54350 -113.99624 34775 ft 516 kts 97°
2026-04-25 03:25 33.53728 -113.91065 34780 ft 514 kts 97°
2026-04-25 03:26 33.53108 -113.82518 34780 ft 515 kts 97°
2026-04-25 03:26 33.52479 -113.73971 34795 ft 515 kts 97°
2026-04-25 03:27 33.51844 -113.65422 34782 ft 515 kts 97°
2026-04-25 03:27 33.51202 -113.56883 34790 ft 514 kts 97°
2026-04-25 03:28 33.50558 -113.48354 34789 ft 514 kts 97°
2026-04-25 03:28 33.49906 -113.39842 34786 ft 512 kts 97°
2026-04-25 03:29 33.49254 -113.31390 34799 ft 513 kts 97°
2026-04-25 03:29 33.48589 -113.22896 34794 ft 512 kts 97°
2026-04-25 03:30 33.47919 -113.14407 34798 ft 512 kts 98°
2026-04-25 03:30 33.47245 -113.05926 34800 ft 511 kts 98°
2026-04-25 03:31 33.46568 -112.97462 34805 ft 510 kts 98°
2026-04-25 03:31 33.45894 -112.88987 34795 ft 511 kts 97°
2026-04-25 03:32 33.45219 -112.80523 34827 ft 510 kts 95°
2026-04-25 03:32 33.45063 -112.72013 34812 ft 511 kts 92°
2026-04-25 03:33 33.44925 -112.63503 34816 ft 511 kts 92°
2026-04-25 03:33 33.44745 -112.54998 34800 ft 511 kts 92°
2026-04-25 03:34 33.44556 -112.46496 34792 ft 511 kts 92°
2026-04-25 03:34 33.44355 -112.37996 34791 ft 511 kts 92°
2026-04-25 03:35 33.44151 -112.29499 34791 ft 510 kts 92°
2026-04-25 03:35 33.43941 -112.21016 34788 ft 510 kts 92°
2026-04-25 03:36 33.43727 -112.12580 34787 ft 510 kts 93°
2026-04-25 03:36 33.43503 -112.04096 34787 ft 510 kts 93°
2026-04-25 03:37 33.42975 -111.95659 34810 ft 506 kts 107°
2026-04-25 03:37 33.40690 -111.87746 34831 ft 502 kts 115°
2026-04-25 03:38 33.38299 -111.79897 34803 ft 502 kts 114°
2026-04-25 03:38 33.35943 -111.72035 34809 ft 501 kts 114°
2026-04-25 03:39 33.33602 -111.64180 34822 ft 501 kts 114°
2026-04-25 03:39 33.31259 -111.56329 34825 ft 501 kts 114°
2026-04-25 03:40 33.28919 -111.48489 34819 ft 501 kts 114°
2026-04-25 03:40 33.26589 -111.40706 34834 ft 500 kts 114°
2026-04-25 03:41 33.24239 -111.32892 34843 ft 500 kts 114°
2026-04-25 03:41 33.21887 -111.25082 34846 ft 500 kts 114°
2026-04-25 03:42 33.19532 -111.17274 34857 ft 500 kts 114°
2026-04-25 03:42 33.17168 -111.09458 34873 ft 500 kts 115°
2026-04-25 03:43 33.14804 -111.01659 34873 ft 499 kts 114°
2026-04-25 03:43 33.12437 -110.93870 34876 ft 499 kts 114°
2026-04-25 03:44 33.10071 -110.86089 34882 ft 499 kts 115°
2026-04-25 03:44 33.07697 -110.78319 34903 ft 498 kts 114°
2026-04-25 03:45 33.05323 -110.70566 34967 ft 497 kts 115°
2026-04-25 03:45 33.02938 -110.62798 34924 ft 498 kts 115°
2026-04-25 03:46 33.00554 -110.55036 34983 ft 499 kts 115°
2026-04-25 03:46 32.98152 -110.47274 34999 ft 499 kts 115°
2026-04-25 03:47 32.95763 -110.39570 34992 ft 500 kts 115°
2026-04-25 03:47 32.93357 -110.31814 34924 ft 499 kts 115°
2026-04-25 03:48 32.90953 -110.24063 34939 ft 499 kts 115°
2026-04-25 03:48 32.88543 -110.16327 34917 ft 499 kts 115°
2026-04-25 03:49 32.86151 -110.08596 34921 ft 498 kts 115°
2026-04-25 03:49 32.83732 -110.00860 34907 ft 498 kts 115°
2026-04-25 03:50 32.81313 -109.93132 34903 ft 498 kts 115°
2026-04-25 03:50 32.78889 -109.85423 34884 ft 498 kts 115°
2026-04-25 03:51 32.76456 -109.77730 34877 ft 498 kts 115°
2026-04-25 03:51 32.74027 -109.70094 34874 ft 498 kts 115°
2026-04-25 03:52 32.71586 -109.62387 34868 ft 498 kts 115°
2026-04-25 03:52 32.69145 -109.54657 34879 ft 498 kts 115°
2026-04-25 03:53 32.66704 -109.46962 34888 ft 498 kts 115°
2026-04-25 03:53 32.64244 -109.39269 34884 ft 498 kts 115°
2026-04-25 03:54 32.61790 -109.31635 34911 ft 498 kts 115°
2026-04-25 03:54 32.59315 -109.23937 34925 ft 499 kts 115°
2026-04-25 03:55 32.56868 -109.16251 34928 ft 497 kts 115°
2026-04-25 03:55 32.54401 -109.08582 34950 ft 499 kts 115°
2026-04-25 03:56 32.51901 -109.00912 34957 ft 499 kts 115°
2026-04-25 03:56 32.49439 -108.93281 34953 ft 499 kts 115°
2026-04-25 03:57 32.46949 -108.85609 34965 ft 499 kts 115°
2026-04-25 03:57 32.44462 -108.77949 34966 ft 499 kts 115°
2026-04-25 03:58 32.41979 -108.70277 34969 ft 499 kts 115°
2026-04-25 03:58 32.39459 -108.62629 34966 ft 500 kts 115°
2026-04-25 03:59 32.36965 -108.54965 34962 ft 498 kts 115°
2026-04-25 03:59 32.34468 -108.47314 34963 ft 499 kts 115°
2026-04-25 04:00 32.31954 -108.39661 34966 ft 499 kts 115°
2026-04-25 04:00 32.29427 -108.32018 34973 ft 499 kts 115°
2026-04-25 04:01 32.27084 -108.24286 35000 ft 503 kts 105°
2026-04-25 04:01 32.26174 -108.17480 35006 ft 506 kts 98°
2026-04-25 04:02 32.25228 -108.09241 34803 ft 505 kts 98°
2026-04-25 04:02 32.24752 -108.05141 34390 ft 500 kts 98°
2026-04-25 04:02 32.24280 -108.01086 33758 ft 500 kts 98°
2026-04-25 04:03 32.23648 -107.95694 32857 ft 499 kts 98°
2026-04-25 04:03 32.23329 -107.92958 32381 ft 498 kts 98°
2026-04-25 04:03 32.22857 -107.88916 31724 ft 495 kts 98°
2026-04-25 04:03 32.22387 -107.84909 31052 ft 491 kts 98°
2026-04-25 04:04 32.21916 -107.80929 30402 ft 487 kts 98°
2026-04-25 04:04 32.21448 -107.76976 29704 ft 485 kts 98°
2026-04-25 04:04 32.20994 -107.73038 29101 ft 481 kts 98°
2026-04-25 04:04 32.20636 -107.69927 28572 ft 480 kts 98°
2026-04-25 04:05 32.20184 -107.66025 27948 ft 479 kts 98°
2026-04-25 04:05 32.19728 -107.62115 27309 ft 481 kts 98°
2026-04-25 04:05 32.19273 -107.58201 26663 ft 481 kts 98°
2026-04-25 04:05 32.18815 -107.54289 26036 ft 481 kts 99°
2026-04-25 04:06 32.18355 -107.50376 25385 ft 481 kts 99°
2026-04-25 04:06 32.17895 -107.46474 24757 ft 479 kts 99°
2026-04-25 04:06 32.17439 -107.42594 24121 ft 474 kts 99°
2026-04-25 04:06 32.16987 -107.38770 23494 ft 467 kts 99°
2026-04-25 04:07 32.16542 -107.34999 22884 ft 461 kts 99°
2026-04-25 04:07 32.16100 -107.31274 22279 ft 455 kts 99°
2026-04-25 04:07 32.15661 -107.27598 21677 ft 449 kts 99°
2026-04-25 04:07 32.15233 -107.24013 21094 ft 444 kts 99°
2026-04-25 04:08 32.14803 -107.20429 20509 ft 438 kts 99°
2026-04-25 04:08 32.14378 -107.16894 19936 ft 433 kts 99°
2026-04-25 04:08 32.13957 -107.13394 19366 ft 428 kts 99°
2026-04-25 04:08 32.13541 -107.09940 18798 ft 423 kts 99°
2026-04-25 04:09 32.13131 -107.06529 18243 ft 419 kts 99°
2026-04-25 04:09 32.12723 -107.03141 17696 ft 415 kts 99°
2026-04-25 04:09 32.12316 -106.99792 17161 ft 410 kts 99°
2026-04-25 04:09 32.11875 -106.96457 16275 ft 411 kts 104°
2026-04-25 04:10 32.11168 -106.93307 16347 ft 393 kts 107°
2026-04-25 04:10 32.10442 -106.90156 15821 ft 400 kts 107°
2026-04-25 04:10 32.09738 -106.86999 15392 ft 397 kts 106°
2026-04-25 04:10 32.09042 -106.83858 14938 ft 394 kts 106°
2026-04-25 04:11 32.07634 -106.77768 13912 ft 376 kts 108°
2026-04-25 04:11 32.06925 -106.74824 13381 ft 369 kts 108°
2026-04-25 04:11 32.06244 -106.71981 12867 ft 350 kts 108°
2026-04-25 04:12 32.05585 -106.69273 12473 ft 341 kts 108°
2026-04-25 04:12 32.04923 -106.66608 12011 ft 337 kts 108°
2026-04-25 04:12 32.04277 -106.63975 11572 ft 332 kts 108°
2026-04-25 04:12 32.03637 -106.61383 11138 ft 327 kts 108°
2026-04-25 04:13 32.03001 -106.58817 10694 ft 324 kts 108°
2026-04-25 04:13 32.02369 -106.56281 10271 ft 322 kts 108°
2026-04-25 04:13 32.01743 -106.53758 9849 ft 319 kts 108°
2026-04-25 04:13 32.01130 -106.51267 9430 ft 315 kts 108°
2026-04-25 04:14 32.00518 -106.48799 9118 ft 310 kts 108°
2026-04-25 04:14 31.99985 -106.46378 8850 ft 302 kts 103°
2026-04-25 04:14 31.99577 -106.43983 8660 ft 293 kts 103°
2026-04-25 04:14 31.99173 -106.41697 8687 ft 277 kts 103°
2026-04-25 04:15 31.98791 -106.39544 8664 ft 260 kts 103°
2026-04-25 04:15 31.98433 -106.37560 8556 ft 243 kts 104°
2026-04-25 04:15 31.98089 -106.35677 8504 ft 230 kts 104°
2026-04-25 04:15 31.97756 -106.33850 8447 ft 227 kts 104°
2026-04-25 04:16 31.97419 -106.32023 8332 ft 227 kts 105°
2026-04-25 04:16 31.97083 -106.30201 8171 ft 225 kts 104°
2026-04-25 04:16 31.96753 -106.28401 8092 ft 223 kts 104°
2026-04-25 04:16 31.96323 -106.26643 7776 ft 224 kts 122°
2026-04-25 04:17 31.95228 -106.25484 7324 ft 206 kts 163°
2026-04-25 04:17 31.93904 -106.25242 7078 ft 184 kts 185°
2026-04-25 04:17 31.92661 -106.25322 6787 ft 174 kts 189°
2026-04-25 04:17 31.91488 -106.25473 6508 ft 165 kts 197°
2026-04-25 04:18 31.90475 -106.25969 6315 ft 152 kts 210°
2026-04-25 04:18 31.89635 -106.26709 6123 ft 155 kts 230°
2026-04-25 04:18 31.88966 -106.27695 5973 ft 155 kts 230°
2026-04-25 04:18 31.88238 -106.28639 5782 ft 157 kts 229°
2026-04-25 04:19 31.87533 -106.29610 5579 ft 156 kts 233°
2026-04-25 04:19 31.86845 -106.30598 5373 ft 156 kts 232°
2026-04-25 04:19 31.86147 -106.31573 5190 ft 155 kts 233°
2026-04-25 04:19 31.85460 -106.32536 4969 ft 148 kts 235°
2026-04-25 04:20 31.84828 -106.33426 4771 ft 138 kts 234°
2026-04-25 04:20 31.84217 -106.34286 4591 ft 136 kts 233°
2026-04-25 04:20 31.83607 -106.35139 4408 ft 137 kts 234°
2026-04-25 04:20 31.83005 -106.35981 4245 ft 134 kts 237°
2026-04-25 04:21 31.82420 -106.36824 4029 ft 129 kts 230°
2026-04-25 04:21 31.81900 -106.37583 3943 ft 104 kts 228°
2026-04-25 04:21 31.81532 -106.38066 3944 ft 59 kts 235°
2026-04-25 04:21 31.81292 -106.38404 3952 ft 47 kts 230°
2026-04-25 04:22 31.81098 -106.38674 3958 ft 40 kts 229°
2026-04-25 04:22 31.80920 -106.38909 3958 ft 37 kts 221°
2026-04-25 04:22 31.80728 -106.39089 3957 ft 35 kts 203°
2026-04-25 04:22 31.80506 -106.39190 3955 ft 34 kts 200°
2026-04-25 04:23 31.80283 -106.39283 3954 ft 32 kts 201°
2026-04-25 04:23 31.80140 -106.39413 3955 ft 20 kts 225°
2026-04-25 04:23 31.80107 -106.39441 3956 ft 3 kts 180°
2026-04-25 04:23 31.80066 -106.39441 3955 ft 8 kts 169°
2026-04-25 04:24 31.80057 -106.39439 3954 ft 0 kts 169°
2026-04-25 04:26 31.80051 -106.39465 3955 ft 0 kts 179°